GW1115 Weather Reports


time (UTC)temp
F
wind
direction
speed
knots
gust
knots
rain 1hr
in
rain 24hr
in
rain mn
in
humidity
%
barometer
mb
20260504081524 48 182 4.3 7.8 0.00 0.00 0.00 62 1016.7
20260504044537 40 159 0.9 2.6 0.00 0.00 0.00 82 1017.6
20260504043102 39 159 0.0 0.0 0.00 0.00 0.00 85 1017.6
20260504041538 39 159 0.0 1.7 0.00 0.00 0.00 83 1017.4
20260504040019 39 159 0.0 1.7 0.00 0.00 0.00 81 1017.6
20260504034555 39 159 0.0 0.9 0.00 0.00 0.00 79 1017.7
20260504033019 40 159 0.0 1.7 0.00 0.00 0.00 75 1017.6
20260504031602 42 159 0.0 0.0 0.00 0.00 0.00 73 1017.6
20260504030047 43 159 1.7 2.6 0.00 0.00 0.00 69 1017.8
20260504024528 44 159 0.9 3.5 0.00 0.00 0.00 66 1017.9
20260504023059 45 159 2.6 4.3 0.00 0.00 0.00 62 1017.9
20260504023008 45 159 2.6 4.3 0.00 0.00 0.00 62 1017.8
20260504021546 45 189 1.7 2.6 0.00 0.00 0.00 63 1017.8
20260504020021 46 190 0.9 2.6 0.00 0.00 0.00 62 1017.8
20260504014558 47 190 0.0 1.7 0.00 0.00 0.00 61 1017.7
20260504013027 47 195 1.7 2.6 0.00 0.00 0.00 59 1017.7
20260504011505 47 200 0.9 1.7 0.00 0.00 0.00 62 1017.7
20260504010038 48 200 0.0 0.9 0.00 0.00 0.00 61 1017.5
20260504004521 49 200 0.0 0.0 0.00 0.00 0.00 57 1017.4
20260504003059 50 200 0.9 2.6 0.00 0.00 0.00 53 1017.4
20260504003001 50 200 0.9 2.6 0.00 0.00 0.00 51 1017.4
20260504001541 51 200 0.0 2.6 0.00 0.00 0.00 50 1017.4
20260504000010 52 200 0.9 4.3 0.00 0.00 0.00 49 1017.5
20260503234549 52 228 3.5 7.0 0.00 0.00 0.00 47 1017.6
20260503233021 53 234 1.7 7.8 0.00 0.00 0.00 47 1017.6
20260503231602 54 226 5.2 8.7 0.00 0.00 0.00 44 1017.6
20260503230032 54 203 3.5 10.4 0.00 0.00 0.00 44 1017.7
20260503224512 55 261 7.0 15.6 0.00 0.00 0.00 43 1017.7
20260503223041 56 216 7.0 11.3 0.00 0.00 0.00 42 1017.6
20260503221521 56 225 4.3 12.2 0.00 0.00 0.00 44 1017.7
20260503220047 55 190 7.8 10.4 0.00 0.00 0.00 42 1017.7
20260503214540 55 225 5.2 10.4 0.00 0.00 0.00 42 1017.7
20260503213009 55 219 3.5 12.2 0.00 0.00 0.00 44 1017.8
20260503211609 56 270 7.0 13.0 0.00 0.00 0.00 41 1017.7
20260503210027 55 213 5.2 13.9 0.00 0.00 0.00 42 1018.1
20260503204600 56 219 5.2 9.6 0.00 0.00 0.00 44 1018.1
20260503204503 56 161 5.2 10.4 0.00 0.00 0.00 42 1018.2
20260503203031 55 169 7.0 13.0 0.00 0.00 0.00 44 1018.3
20260503201510 55 163 7.8 11.3 0.00 0.00 0.00 42 1018.4
20260503200054 55 240 7.0 14.8 0.00 0.00 0.00 44 1018.7
20260503194523 56 241 2.6 12.2 0.00 0.00 0.00 50 1018.9
20260503193101 55 250 4.3 9.6 0.00 0.00 0.00 44 1019.1
20260503191542 53 213 5.2 11.3 0.00 0.00 0.00 45 1019.3
20260503190008 54 259 4.3 10.4 0.00 0.00 0.00 48 1019.4
20260503184557 53 196 3.5 8.7 0.00 0.00 0.00 48 1019.5
20260503183019 54 263 3.5 11.3 0.00 0.00 0.00 48 1019.7
20260503181610 53 236 6.1 13.0 0.00 0.00 0.00 47 1019.9
20260503180041 52 245 6.1 13.0 0.00 0.00 0.00 51 1019.9
20260503174506 52 219 7.8 18.2 0.00 0.00 0.00 53 1020.3
20260503173043 51 205 5.2 11.3 0.00 0.00 0.00 50 1020.6
20260503171512 50 181 7.8 11.3 0.00 0.00 0.00 51 1020.6